DateTimeUTC,F1_A11,F1_S11,BsB_S11,BsG_S11,BsR_S11,BbsB_S11,BbsG_S11,BbsR_S11,BaB_A11,BaG_A11,BaR_A11,Tu_S11,T_S11,Uu_S11,U_S11,P_S11,T1_A11
2021-06-26T06:00:00Z,00000200,20000000,,,,,,,0000.16,0000.37,0000.23,18.0,24.7,05.3,03.5,0669.7,31.1
2021-06-26T06:01:00Z,00000200,20000000,,,,,,,-000.27,-000.05,-000.24,17.9,24.7,05.3,03.5,0669.7,31.1
2021-06-26T06:02:00Z,00000200,20000000,,,,,,,0000.10,-000.14,-000.06,17.9,24.7,05.3,03.5,0669.7,31.0
2021-06-26T06:03:00Z,00000200,60000000,,,,,,,0000.06,0000.11,0000.34,17.9,24.7,05.3,03.5,0669.7,31.0
2021-06-26T06:04:00Z,00000200,40000000,0000.62,0000.26,0000.14,-000.39,-000.01,-000.12,0000.19,-000.25,-000.33,18.0,24.4,05.3,03.6,0670.6,31.0
2021-06-26T06:05:00Z,00000200,00000000,0000.11,0000.52,0000.00,-000.12,-000.11,-000.09,-000.22,0000.30,0000.41,18.1,24.4,05.3,03.6,0670.7,31.1
2021-06-26T06:06:00Z,00000200,00000000,0000.53,0000.05,0000.17,0000.16,0000.04,0000.02,0000.19,0000.08,-000.09,18.1,24.5,05.4,03.6,0670.7,31.1
2021-06-26T06:07:00Z,00000200,00000000,0000.45,0000.11,0000.13,0000.10,0000.19,0000.17,-000.05,-000.01,0000.00,18.2,24.5,05.3,03.6,0670.8,31.1
2021-06-26T06:08:00Z,00000200,00000000,0000.43,0000.31,0000.30,0000.05,0000.34,-000.03,0000.11,-000.11,0000.06,18.3,24.5,05.3,03.6,0670.8,31.1
2021-06-26T06:09:00Z,00000200,00000000,0000.80,0000.14,0000.36,0000.34,0000.14,0000.11,-000.09,0000.31,0000.13,18.3,24.5,05.4,03.7,0670.8,31.1
2021-06-26T06:10:00Z,00000200,00000000,0000.70,0000.44,-000.03,-000.39,0000.05,-000.12,-000.09,-000.25,-000.15,18.3,24.5,05.5,03.7,0670.7,31.1
2021-06-26T06:11:00Z,00000200,00000000,0000.25,0000.28,0000.44,0000.03,0000.14,0000.10,-000.13,-000.01,-000.31,18.2,24.5,05.4,03.7,0670.6,31.1
2021-06-26T06:12:00Z,00000200,00000000,0000.41,0000.31,0000.21,0000.44,0000.03,0000.21,0000.11,0000.01,0000.18,18.2,24.5,05.3,03.6,0670.6,31.1
2021-06-26T06:13:00Z,00000200,00000000,0000.74,0000.04,0000.07,0000.13,0000.12,0000.04,0000.04,0000.24,0000.26,18.2,24.5,05.4,03.7,0670.7,31.0
2021-06-26T06:14:00Z,00000200,00000000,-000.39,0000.16,0000.15,0000.17,0000.07,0000.21,-000.06,-000.21,-000.16,18.1,24.4,05.6,03.8,0670.7,31.1
2021-06-26T06:15:00Z,00000200,00000000,0000.18,0000.47,0000.04,0000.12,-000.20,0000.25,-000.13,-000.46,-000.26,18.1,24.4,05.3,03.6,0670.7,31.0
2021-06-26T06:16:00Z,00000200,00000000,-000.42,0000.34,0000.52,-000.39,0000.07,-000.10,0000.19,0000.19,-000.01,18.0,24.4,05.4,03.6,0670.6,31.0
2021-06-26T06:17:00Z,00000200,00000000,-000.06,0000.25,0000.20,-000.05,0000.00,-000.05,0000.27,0000.42,0000.41,18.0,24.4,05.5,03.7,0670.6,31.0
2021-06-26T06:18:00Z,00000200,00000000,0000.04,0000.29,0000.21,0000.17,-000.11,-000.17,0000.25,-000.16,-000.20,18.0,24.3,05.7,03.8,0670.7,31.0
2021-06-26T06:19:00Z,00000200,00000000,0000.70,0000.19,0000.18,-000.38,0000.01,-000.18,0000.23,0000.23,0000.11,18.0,24.3,05.7,03.9,0670.7,31.0
2021-06-26T06:20:00Z,00000200,00000000,-000.04,-000.07,-000.00,0000.06,-000.09,0000.13,-000.28,-000.08,0000.13,18.1,24.4,05.7,03.8,0670.8,31.1
2021-06-26T06:21:00Z,00000200,00000000,0000.10,-000.05,0000.17,-000.21,-000.02,0000.25,-000.32,0000.09,0000.18,18.1,24.4,05.5,03.7,0670.7,31.0
2021-06-26T06:22:00Z,00000200,00000000,0000.36,0000.21,0000.05,-000.19,0000.18,0000.03,0000.25,-000.15,-000.06,18.2,24.4,05.3,03.7,0670.7,31.1
2021-06-26T06:23:00Z,00000200,00000000,0000.41,0000.19,0000.05,0000.40,-000.17,-000.06,-000.49,-000.11,-000.46,18.3,24.5,05.2,03.6,0670.6,31.1
2021-06-26T06:24:00Z,00000200,00000000,0000.48,-000.04,-000.01,0000.00,0000.01,-000.15,0000.18,-000.06,0000.23,18.3,24.5,05.0,03.5,0670.7,31.1
2021-06-26T06:25:00Z,00000200,00000000,0000.19,0000.35,0000.22,0000.54,0000.02,0000.30,-000.38,-000.15,-000.38,18.3,24.5,05.1,03.5,0670.7,31.1
2021-06-26T06:26:00Z,00000200,00000000,0000.10,-000.08,0000.22,-000.55,-000.16,-000.04,-000.15,0000.14,-000.03,18.3,24.5,05.0,03.5,0670.7,31.1
2021-06-26T06:27:00Z,00000200,00000000,0000.36,0000.18,0000.36,0000.03,-000.01,0000.29,0000.61,0000.03,0000.24,18.3,24.5,05.0,03.4,0670.9,31.1
2021-06-26T06:28:00Z,00000200,00000000,0000.15,0000.36,0000.05,-000.36,-000.15,0000.31,-000.08,0000.26,-000.01,18.2,24.5,05.2,03.6,0670.8,31.1
2021-06-26T06:29:00Z,00000200,00000000,0000.84,0000.17,0000.03,-000.21,-000.01,-000.07,-000.31,-000.52,-000.47,18.2,24.4,05.2,03.5,0670.7,31.1
2021-06-26T06:30:00Z,00000200,00000000,0000.11,0000.39,0000.58,0000.16,0000.09,0000.38,-000.21,-000.49,0000.28,18.1,24.4,05.0,03.4,0670.7,31.0
2021-06-26T06:31:00Z,00000200,00000000,0000.26,-000.10,0000.23,0000.21,-000.19,-000.08,0000.11,0000.46,-000.19,18.1,24.4,05.0,03.4,0670.8,31.0
2021-06-26T06:32:00Z,00000200,00000000,-000.12,0000.24,0000.39,-000.11,0000.09,-000.03,0000.49,0000.06,0000.53,18.1,24.4,05.1,03.5,0670.7,31.0
2021-06-26T06:33:00Z,00000200,00000000,0000.21,-000.03,0000.29,0000.17,-000.03,0000.13,-000.24,0000.28,0000.03,18.1,24.4,05.0,03.4,0670.7,31.0
2021-06-26T06:34:00Z,00000200,00000000,-000.45,0000.31,0000.13,-000.31,0000.01,-000.16,-000.13,0000.05,0000.03,18.1,24.4,05.0,03.4,0670.7,31.0
2021-06-26T06:35:00Z,00000200,00000000,0000.12,-000.11,0000.09,-000.18,-000.04,0000.21,0000.15,-000.04,-000.35,18.1,24.4,05.0,03.4,0670.8,31.0
2021-06-26T06:36:00Z,00000200,00000000,0000.33,-000.14,0000.26,0000.25,-000.06,0000.21,0000.19,-000.10,0000.04,18.2,24.4,05.0,03.4,0670.8,31.1
2021-06-26T06:37:00Z,00000200,00000000,0000.65,0000.22,0000.28,-000.06,-000.05,-000.03,0000.09,0000.25,0000.36,18.3,24.4,05.0,03.4,0670.8,31.1
2021-06-26T06:38:00Z,00000200,00000000,0000.02,-000.08,0000.39,-000.13,0000.35,0000.31,0000.05,-000.07,0000.17,18.3,24.5,05.1,03.5,0670.9,31.1
2021-06-26T06:39:00Z,00000200,00000000,0000.00,0000.03,0000.29,-000.07,0000.19,0000.01,0000.12,-000.24,-000.10,18.4,24.5,05.2,03.6,0670.8,31.1
2021-06-26T06:40:00Z,00000200,00000000,0000.63,0000.38,0000.07,0000.06,0000.20,0000.21,-000.04,0000.46,-000.04,18.4,24.5,05.1,03.5,0670.9,31.1
2021-06-26T06:41:00Z,00000200,00000000,0000.80,0000.57,0000.37,0000.33,-000.01,-000.05,-000.05,-000.09,-000.00,18.3,24.5,05.0,03.4,0670.8,31.1
2021-06-26T06:42:00Z,00000200,00000000,0000.21,0000.21,-000.01,-000.06,0000.06,-000.29,-000.27,-000.35,0000.03,18.3,24.5,05.1,03.5,0670.8,31.1
2021-06-26T06:43:00Z,00000200,00000000,0000.65,0000.51,0000.09,0000.30,-000.35,-000.13,-000.21,-000.40,-000.55,18.3,24.5,05.1,03.5,0670.8,31.1
2021-06-26T06:44:00Z,00000200,00000000,0001.32,0000.27,0000.08,-000.01,-000.20,0000.14,0000.18,0000.13,0000.01,18.2,24.5,05.2,03.5,0670.8,31.1
2021-06-26T06:45:00Z,00000200,00000000,-000.42,0000.28,-000.33,-000.02,-000.01,-000.05,0000.04,0000.53,0000.33,18.2,24.5,05.1,03.4,0670.7,31.0
2021-06-26T06:46:00Z,00000200,00000000,0000.30,0000.08,0000.35,-000.26,0000.04,0000.12,-000.07,-000.23,-000.22,18.1,24.4,05.2,03.5,0670.9,31.0
2021-06-26T06:47:00Z,00000200,00000000,-000.09,-000.24,0000.17,-000.15,-000.03,-000.06,-000.03,0000.23,0000.19,18.1,24.4,05.3,03.6,0670.9,31.0
2021-06-26T06:48:00Z,00000200,00000000,-000.19,0000.06,0000.17,-000.37,0000.18,-000.18,0000.22,-000.28,0000.01,18.1,24.4,05.3,03.6,0670.7,31.0
2021-06-26T06:49:00Z,00000200,00000000,0000.71,0000.08,0000.02,-000.03,-000.19,0000.04,0000.06,0000.06,0000.01,18.1,24.4,05.2,03.5,0670.8,31.0
2021-06-26T06:50:00Z,00000200,00000000,0000.57,0000.09,0000.11,-000.27,-000.22,-000.24,0000.13,0000.63,0000.25,18.2,24.4,05.2,03.5,0670.9,31.0
2021-06-26T06:51:00Z,00000200,00000000,0000.77,0000.33,0000.27,0000.01,-000.10,-000.04,-000.20,-000.09,-000.10,18.2,24.4,05.2,03.6,0670.8,31.1
2021-06-26T06:52:00Z,00000200,00000000,0000.59,0000.09,0000.01,-000.43,0000.17,-000.21,0000.13,-000.23,-000.04,18.3,24.5,05.1,03.5,0670.7,31.1
2021-06-26T06:53:00Z,00000200,00000000,0000.43,0000.39,0000.00,-000.11,-000.09,-000.08,0000.04,0000.02,0000.29,18.3,24.5,05.1,03.5,0670.9,31.1
2021-06-26T06:54:00Z,00000200,00000000,0000.27,0000.22,0000.46,-000.16,-000.10,0000.30,-000.21,-000.14,-000.06,18.4,24.5,05.0,03.5,0670.8,31.1
2021-06-26T06:55:00Z,00000200,00000000,0000.03,0000.51,0000.22,-000.55,0000.12,0000.12,-000.02,0000.03,-000.48,18.4,24.6,05.2,03.6,0670.7,31.1
2021-06-26T06:56:00Z,00000200,00000000,0000.03,0000.06,0000.06,0000.39,0000.09,-000.25,-000.16,0000.08,-000.12,18.3,24.5,05.1,03.5,0670.7,31.1
2021-06-26T06:57:00Z,00000200,40000000,,,,,,,-000.04,-000.34,-000.11,18.4,24.6,04.8,03.3,0670.6,31.1
2021-06-26T06:58:00Z,00000200,60000000,,,,,,,0000.13,0000.18,0000.23,18.0,24.6,05.0,03.3,0669.8,31.1
2021-06-26T06:59:00Z,00000200,20000000,,,,,,,-000.27,-000.29,-000.34,18.0,24.7,05.0,03.3,0669.7,31.1
